User: anonymous   Login
Location: Bowman Observatory
(41.0326°N, 73.6210°W)
Time: 13:26:45
(UTC-04:00)
Language:

Cosmos 2298 Rocket - Orbit

View from above orbital plane
View from above orbital plane
View from above satellite
View from above satellite

Ground track
Ground track

The orbit data is extracted from the following two-line orbital elements,

1 23432U 94083B   14298.13610064  .00000382  00000-0  14809-3 0  9755
2 23432 074.0330 264.3773 0006063 334.4991 107.5073 14.33297459 37889
Epoch (UTC): 25 October 2014 03:15:59
Eccentricity: 0.0006063
inclination: 74.0330°
perigee height: 776 km
apogee height: 785 km
right ascension of ascending node: 264.3773°
argument of perigee: 334.4991°
revolutions per day: 14.33297459
mean anomaly at epoch: 107.5073°
orbit number at epoch: 3788

The dashed part of the orbit path shows where the satellite is in the earth's shadow,  

DLR